Météo par heure à Juszczyna

Ce jour, 20 Juin, Dimanche

Heure Température Précipitation Vent Pression Humidité
00:00 +19°C° 0.1 mm 1 m/s 718 mmHg 88%
01:00 +18°C° 0.1 mm 1 m/s 718 mmHg 89%
02:00 +18°C° 0 mm 1 m/s 718 mmHg 89%
03:00 +18°C° 0 mm 1 m/s 718 mmHg 89%
04:00 +16°C° 0 mm 1 m/s 717 mmHg 90%
05:00 +19°C° 0 mm 1 m/s 717 mmHg 84%
06:00 +21°C° 0 mm 1 m/s 718 mmHg 78%
07:00 +23°C° 0 mm 1 m/s 718 mmHg 72%
08:00 +25°C° 0.1 mm 1 m/s 718 mmHg 67%
09:00 +26°C° 0.1 mm 1 m/s 718 mmHg 62%
10:00 +28°C° 0.1 mm 1 m/s 718 mmHg 56%
11:00 +28°C° 0.1 mm 1 m/s 718 mmHg 53%
12:00 +29°C° 0.1 mm 2 m/s 718 mmHg 50%
13:00 +30°C° 0.1 mm 2 m/s 717 mmHg 47%
14:00 +29°C° 0 mm 2 m/s 717 mmHg 47%
15:00 +29°C° 0 mm 2 m/s 717 mmHg 48%
16:00 +29°C° 0 mm 2 m/s 717 mmHg 49%
17:00 +27°C° 0 mm 2 m/s 716 mmHg 59%
18:00 +25°C° 0 mm 2 m/s 716 mmHg 69%
19:00 +24°C° 0 mm 1 m/s 716 mmHg 78%
20:00 +22°C° 0 mm 1 m/s 716 mmHg 82%
21:00 +21°C° 0 mm 1 m/s 716 mmHg 85%
22:00 +20°C° 0 mm 1 m/s 716 mmHg 89%
23:00 +19°C° 0 mm 1 m/s 715 mmHg 89%

Demain, 21 Juin, Lundi

Heure Température Précipitation Vent Pression Humidité
00:00 +19°C° 0 mm 1 m/s 715 mmHg 89%
01:00 +19°C° 0 mm 1 m/s 715 mmHg 89%
02:00 +19°C° 0 mm 1 m/s 715 mmHg 89%
03:00 +18°C° 0 mm 1 m/s 714 mmHg 88%
04:00 +18°C° 0 mm 1 m/s 714 mmHg 87%
05:00 +20°C° 0 mm 1 m/s 714 mmHg 80%
06:00 +22°C° 0 mm 1 m/s 715 mmHg 73%
07:00 +25°C° 0 mm 1 m/s 715 mmHg 66%
08:00 +26°C° 0 mm 1 m/s 715 mmHg 60%
09:00 +28°C° 0 mm 1 m/s 715 mmHg 54%
10:00 +30°C° 0 mm 1 m/s 715 mmHg 48%
11:00 +30°C° 0 mm 1 m/s 715 mmHg 46%
12:00 +31°C° 0 mm 1 m/s 715 mmHg 44%
13:00 +31°C° 0 mm 1 m/s 714 mmHg 42%
14:00 +31°C° 0 mm 2 m/s 714 mmHg 45%
15:00 +31°C° 0 mm 2 m/s 714 mmHg 47%
16:00 +30°C° 0 mm 2 m/s 714 mmHg 50%
17:00 +28°C° 0.3 mm 2 m/s 714 mmHg 59%
18:00 +26°C° 0.3 mm 1 m/s 714 mmHg 67%
19:00 +24°C° 0.3 mm 1 m/s 714 mmHg 76%
20:00 +23°C° 2.1 mm 1 m/s 714 mmHg 82%
21:00 +21°C° 2.1 mm 2 m/s 714 mmHg 88%
22:00 +19°C° 2.1 mm 3 m/s 715 mmHg 93%
23:00 +19°C° 0.6 mm 2 m/s 715 mmHg 94%

Après-demain, 22 Juin, Mardi

Heure Température Précipitation Vent Pression Humidité
00:00 +18°C° 0.6 mm 2 m/s 715 mmHg 95%
01:00 +19°C° 0.6 mm 1 m/s 714 mmHg 96%
02:00 +19°C° 1.4 mm 1 m/s 714 mmHg 97%
03:00 +19°C° 1.4 mm 1 m/s 714 mmHg 97%
04:00 +19°C° 1.4 mm 1 m/s 714 mmHg 97%
05:00 +20°C° 0 mm 1 m/s 715 mmHg 94%
06:00 +21°C° 0 mm 1 m/s 715 mmHg 91%
07:00 +22°C° 0 mm 1 m/s 716 mmHg 89%
08:00 +23°C° 0.2 mm 1 m/s 716 mmHg 84%
09:00 +24°C° 0.2 mm 1 m/s 716 mmHg 79%
10:00 +25°C° 0.2 mm 1 m/s 717 mmHg 74%
11:00 +26°C° 0.3 mm 1 m/s 717 mmHg 71%
12:00 +27°C° 0.3 mm 1 m/s 717 mmHg 69%
13:00 +28°C° 0.3 mm 1 m/s 717 mmHg 67%
14:00 +27°C° 0.8 mm 1 m/s 717 mmHg 69%
15:00 +27°C° 0.8 mm 1 m/s 717 mmHg 71%
16:00 +27°C° 0.8 mm 1 m/s 717 mmHg 73%
17:00 +26°C° 1 mm 1 m/s 717 mmHg 77%
18:00 +25°C° 1 mm 1 m/s 717 mmHg 81%
19:00 +24°C° 1 mm 1 m/s 717 mmHg 85%
20:00 +23°C° 0.3 mm 1 m/s 717 mmHg 88%
21:00 +22°C° 0.3 mm 1 m/s 717 mmHg 90%
22:00 +21°C° 0.3 mm 1 m/s 717 mmHg 92%
23:00 +20°C° 0 mm 1 m/s 717 mmHg 92%

23 Juin, Mercredi

Heure Température Précipitation Vent Pression Humidité
00:00 +20°C° 0 mm 1 m/s 716 mmHg 93%
01:00 +20°C° 0 mm 1 m/s 716 mmHg 93%
02:00 +20°C° 0 mm 1 m/s 716 mmHg 93%
03:00 +19°C° 0 mm 1 m/s 716 mmHg 93%
04:00 +19°C° 0 mm 1 m/s 716 mmHg 93%
05:00 +21°C° 0 mm 1 m/s 717 mmHg 89%
06:00 +23°C° 0 mm 1 m/s 717 mmHg 85%
07:00 +24°C° 0 mm 1 m/s 718 mmHg 81%
08:00 +26°C° 0.2 mm 1 m/s 718 mmHg 75%
09:00 +27°C° 0.2 mm 1 m/s 718 mmHg 69%
10:00 +28°C° 0.2 mm 1 m/s 718 mmHg 64%
11:00 +28°C° 0.5 mm 2 m/s 719 mmHg 64%
12:00 +28°C° 0.5 mm 2 m/s 719 mmHg 65%
13:00 +28°C° 0.5 mm 3 m/s 719 mmHg 65%
14:00 +28°C° 0.5 mm 3 m/s 719 mmHg 66%
15:00 +28°C° 0.5 mm 3 m/s 719 mmHg 67%
16:00 +27°C° 0.5 mm 2 m/s 720 mmHg 67%
17:00 +26°C° 0.1 mm 2 m/s 720 mmHg 72%
18:00 +25°C° 0.1 mm 1 m/s 720 mmHg 76%
19:00 +23°C° 0.1 mm 1 m/s 720 mmHg 81%
20:00 +22°C° 0 mm 1 m/s 720 mmHg 85%
21:00 +20°C° 0 mm 1 m/s 721 mmHg 89%
22:00 +19°C° 0 mm 1 m/s 721 mmHg 93%
23:00 +19°C° 0 mm 1 m/s 721 mmHg 94%

24 Juin, Jeudi

Heure Température Précipitation Vent Pression Humidité
00:00 +18°C° 0 mm 1 m/s 721 mmHg 95%
01:00 +16°C° 0 mm 0 m/s 721 mmHg 96%
02:00 +18°C° 0 mm 1 m/s 720 mmHg 96%
03:00 +16°C° 0 mm 1 m/s 720 mmHg 96%
04:00 +16°C° 0 mm 1 m/s 720 mmHg 96%
05:00 +18°C° 0 mm 1 m/s 720 mmHg 93%
06:00 +20°C° 0 mm 1 m/s 721 mmHg 90%
07:00 +21°C° 0 mm 1 m/s 721 mmHg 86%
08:00 +22°C° 0 mm 1 m/s 721 mmHg 81%
09:00 +24°C° 0 mm 1 m/s 721 mmHg 75%
10:00 +25°C° 0 mm 1 m/s 721 mmHg 70%
11:00 +27°C° 0.1 mm 1 m/s 721 mmHg 65%
12:00 +28°C° 0.1 mm 2 m/s 720 mmHg 60%
13:00 +30°C° 0.1 mm 2 m/s 720 mmHg 55%
14:00 +30°C° 0 mm 2 m/s 720 mmHg 54%
15:00 +31°C° 0 mm 2 m/s 719 mmHg 54%
16:00 +31°C° 0 mm 2 m/s 719 mmHg 54%
17:00 +29°C° 0.3 mm 2 m/s 718 mmHg 64%
18:00 +27°C° 0.3 mm 2 m/s 718 mmHg 74%
19:00 +25°C° 0.3 mm 2 m/s 717 mmHg 83%
20:00 +24°C° 2.1 mm 1 m/s 717 mmHg 86%
21:00 +23°C° 2.1 mm 1 m/s 717 mmHg 89%
22:00 +21°C° 2.1 mm 1 m/s 717 mmHg 92%
23:00 +21°C° 3.6 mm 1 m/s 717 mmHg 94%

25 Juin, Vendredi

Heure Température Précipitation Vent Pression Humidité
00:00 +20°C° 3.6 mm 1 m/s 717 mmHg 96%
01:00 +18°C° 3.6 mm 0 m/s 717 mmHg 97%
02:00 +19°C° 0 mm 1 m/s 717 mmHg 97%
03:00 +19°C° 0 mm 1 m/s 718 mmHg 97%
04:00 +17°C° 0 mm 2 m/s 718 mmHg 97%
05:00 +17°C° 0.1 mm 2 m/s 719 mmHg 97%
06:00 +17°C° 0.1 mm 2 m/s 719 mmHg 96%
07:00 +17°C° 0.1 mm 2 m/s 720 mmHg 96%
08:00 +18°C° 0.1 mm 2 m/s 720 mmHg 92%
09:00 +18°C° 0.1 mm 2 m/s 720 mmHg 87%
10:00 +19°C° 0.1 mm 2 m/s 721 mmHg 83%
11:00 +20°C° 0.1 mm 2 m/s 721 mmHg 80%
12:00 +20°C° 0.1 mm 2 m/s 721 mmHg 77%
13:00 +21°C° 0.1 mm 2 m/s 721 mmHg 74%
14:00 +21°C° 0 mm 2 m/s 721 mmHg 72%
15:00 +21°C° 0 mm 2 m/s 721 mmHg 70%
16:00 +23°C° 0 mm 2 m/s 720 mmHg 68%
17:00 +21°C° 0 mm 2 m/s 720 mmHg 74%
18:00 +20°C° 0 mm 2 m/s 720 mmHg 79%
19:00 +19°C° 0 mm 2 m/s 720 mmHg 84%
20:00 +18°C° 0 mm 2 m/s 720 mmHg 87%
21:00 +18°C° 0 mm 1 m/s 721 mmHg 89%
22:00 +16°C° 0 mm 1 m/s 721 mmHg 92%
23:00 +15°C° 0 mm 1 m/s 721 mmHg 93%
Voir plus

Nous avons besoin de votre consentement

Meteoprog et ses fournisseurs de services peuvent stocker et accéder à des données personnelles telles que des cookies, des identifiants d'appareils ou d'autres technologies similaires sur votre appareil et traiter ces données pour personnaliser le contenu et les publicités, ainsi que pour fournir des fonctionnalités de médias sociaux et analyser le trafic.

  • Stocker et/ou accéder à des informations sur votre appareil

    Des cookies, des identifiants d'appareils ou d'autres informations peuvent être stockés ou accessibles sur votre appareil aux fins indiquées ci-dessus.

  • Annonces et contenus personnalisés, mesure des annonces et des contenus, connaissance de l'audience et développement de produits

    Les annonces et le contenu peuvent être personnalisés en fonction d'un profil. D'autres données peuvent être ajoutées pour mieux personnaliser les annonces et le contenu. Les performances des publicités et du contenu peuvent être mesurées. Il est possible d'obtenir des informations sur le public qui a vu les publicités et le contenu. Ces données peuvent être utilisées pour développer ou améliorer l'expérience de l'utilisateur, les systèmes et les logiciels.

En cliquant sur "J'accepte", vous autorisez l'utilisation de cookies, des identifiants d'appareils, des balises web ou d'autres technologies similaires. Vos paramètres peuvent être modifiés dans le navigateur de votre appareil.

Dans certains cas, des intérêts légitimes peuvent être invoqués plutôt qu'un consentement. Vous pouvez en savoir plus à ce sujet dans notre Politique de confidentialité et de cookies.